[[{"header":{"parameterUnit":"m.s-1","parameterCategory":2,"la1":30.2991,"la2":30.254,"lo1":-89.0895,"lo2":-89.0444,"dy":0.0017,"dx":0.0017,"nx":28,"ny":28,"refTime":"2024-07-19T21:00:00:Z","depth":"0","parameterNumber":2,"parameterNumberName":"U-component_of_CURRENTS"},"data":[0,0,0,0,0,0,0,0,0,0,0,0,0,0,0,0,0,0,0,0,0,0,0,0,0,0,0,0,0,0,0,0,0,0,0,0,0,0,0,0,0,0,0,0,0,0,0,0,0,0,0,0,0,0,0,0,0,0,-0.2317,-0.2317,0,-0.2345,-0.2345,-0.2345,-0.2312,-0.2311,-0.231,-0.2309,-0.2284,-0.2285,-0.2285,0,0,0,0,0,0,0,0,0,0,0,0,0,-0.2238,-0.2239,-0.2317,-0.2317,-0.2318,-0.2345,-0.2345,-0.2345,-0.2312,-0.2311,-0.2309,-0.2308,-0.2284,-0.2285,-0.2285,0,0,0,0,0,0,0,0,0,0,0,0,0,-0.2267,-0.2239,-0.2317,-0.2306,-0.2306,-0.2345,-0.2345,-0.2345,-0.2312,-0.231,-0.2309,-0.2308,-0.2284,-0.2285,-0.2285,-0.2318,0,0,-0.2286,-0.2287,0,0,0,0,0,0,0,0,-0.2265,-0.227,-0.2307,-0.2307,-0.2307,-0.2325,-0.2308,-0.2334,-0.2312,-0.2307,-0.2309,-0.2307,-0.2296,-0.2296,-0.2301,-0.2317,-0.2316,-0.2286,-0.2287,-0.2287,-0.2287,0,0,0,0,0,0,0,-0.2263,-0.2268,-0.2325,-0.2308,-0.2308,-0.2302,-0.2304,-0.2313,-0.2307,-0.2307,-0.2306,-0.2313,-0.2295,-0.2301,-0.23,-0.2316,-0.2286,-0.2287,-0.2287,-0.2287,-0.2344,-0.2345,0,0,0,0,0,0,-0.2267,-0.2267,-0.2324,-0.2326,-0.2285,-0.2305,-0.2307,-0.2319,-0.2308,-0.2306,-0.2315,-0.2312,-0.2301,-0.23,-0.2299,-0.2324,-0.2287,-0.2287,-0.2288,-0.2342,-0.2344,-0.2345,0,0,0,0,0,0,-0.2265,-0.2272,-0.2323,-0.2299,-0.2305,-0.2308,-0.2321,-0.232,-0.2319,-0.2314,-0.231,-0.2314,-0.23,-0.2299,-0.231,-0.2323,-0.2288,-0.2288,-0.2341,-0.2343,-0.2345,-0.2382,0,0,0,0,0,0,-0.2263,-0.2271,-0.2276,-0.2299,-0.2307,-0.2349,-0.2323,-0.2322,-0.2328,-0.2324,-0.2313,-0.2309,-0.2298,-0.2309,-0.231,-0.2323,-0.2288,-0.2339,-0.2342,-0.2344,-0.2379,-0.2384,-0.2389,0,0,0,0,0,-0.226,-0.2276,-0.2276,-0.2283,-0.2315,-0.235,-0.2353,-0.2347,-0.233,-0.2338,-0.233,-0.2309,-0.2324,-0.2311,-0.2312,-0.2325,-0.2338,-0.2341,-0.2344,-0.2376,-0.2383,-0.2389,0,0,0,0,0,0,-0.2237,-0.2275,-0.2276,-0.2299,-0.2324,-0.2345,-0.2352,-0.2351,-0.2353,-0.2344,-0.2328,-0.2326,-0.234,-0.2334,-0.2319,-0.2349,-0.2327,-0.233,-0.2352,-0.2358,-0.2363,-0.2357,-0.2289,0,0,0,0,0,-0.2239,-0.226,-0.2294,-0.231,-0.2325,-0.2339,-0.2349,-0.2352,-0.2361,-0.2359,-0.2353,-0.2349,-0.2356,-0.2356,-0.2361,-0.2381,-0.2359,-0.239,-0.2395,-0.24,-0.2397,-0.2381,-0.2383,-0.2354,-0.2354,-0.2354,0,0,-0.2233,-0.2257,-0.2266,-0.2307,-0.2322,-0.2355,-0.234,-0.2364,-0.2383,-0.2358,-0.2373,-0.2369,-0.2367,-0.2386,-0.2392,-0.2379,-0.2398,-0.2403,-0.2407,-0.2401,-0.2384,-0.2386,-0.2388,-0.2356,-0.2356,-0.2355,0,0,-0.224,-0.2256,-0.2279,-0.2308,-0.2344,-0.2361,-0.2369,-0.2396,-0.2398,-0.2423,-0.2407,-0.2411,-0.2423,-0.2423,-0.2424,-0.2465,-0.2427,-0.2467,-0.2486,-0.2471,-0.2472,-0.2473,-0.2449,-0.2447,-0.2468,-0.2468,-0.2468,0,-0.2229,-0.2265,-0.229,-0.2326,-0.2349,-0.2366,-0.2398,-0.2415,-0.2439,-0.2441,-0.243,-0.2442,-0.244,-0.2457,-0.2472,-0.2475,-0.2454,-0.246,-0.2475,-0.2476,-0.2477,-0.2451,-0.2449,-0.247,-0.247,-0.247,-0.2469,0,-0.2256,-0.229,-0.2308,-0.2359,-0.2389,-0.2419,-0.2456,-0.2474,-0.2475,-0.2484,-0.2496,-0.2495,-0.2495,-0.2503,-0.25,-0.251,-0.2491,-0.2483,-0.2454,-0.2481,-0.2453,-0.245,-0.2473,-0.2472,-0.2472,-0.2471,0,0,-0.2215,-0.2308,-0.2312,-0.2342,-0.2408,-0.2432,-0.2476,-0.2511,-0.2519,-0.2536,-0.2537,-0.256,-0.2543,-0.2545,-0.2539,-0.253,-0.2522,-0.2511,-0.2509,-0.2477,-0.2477,-0.2381,-0.2368,-0.2513,-0.2513,-0.2513,-0.2455,0,-0.2223,-0.2293,-0.2338,-0.2395,-0.2434,-0.2473,-0.2507,-0.2541,-0.2555,-0.2561,-0.256,-0.2561,-0.2565,-0.2556,-0.2554,-0.2531,-0.2517,-0.2538,-0.2464,-0.2461,-0.2364,-0.2362,-0.2227,-0.2157,-0.2452,-0.2452,-0.2452,0,-0.2228,-0.2276,-0.2336,-0.2414,-0.2431,-0.2463,-0.2505,-0.254,-0.2566,-0.2573,-0.2579,-0.2572,-0.2574,-0.2561,-0.2537,-0.2549,-0.2517,-0.2495,-0.2492,-0.2383,-0.2358,-0.2179,-0.2141,-0.2125,-0.2447,-0.2447,-0.2447,0,-0.2178,-0.2271,-0.2314,-0.2343,-0.2432,-0.2451,-0.2486,-0.253,-0.255,-0.2569,-0.257,-0.2575,-0.2563,-0.254,-0.2509,-0.2519,-0.2461,-0.2467,-0.2348,-0.2341,-0.2201,-0.2181,-0.2127,-0.2433,-0.2433,-0.2434,-0.2434,0,-0.2167,-0.2195,-0.229,-0.231,-0.2338,-0.2417,-0.2438,-0.2473,-0.2517,-0.2521,-0.2561,-0.2547,-0.2556,-0.2528,-0.25,-0.2407,-0.2453,-0.234,-0.2315,-0.2211,-0.2193,-0.2153,-0.2196,-0.2431,-0.2432,-0.2432,-0.2433,0,-0.2095,-0.217,-0.221,-0.2295,-0.2316,-0.2327,-0.2401,-0.2415,-0.2476,-0.248,-0.2484,-0.2522,-0.247,-0.2461,-0.241,-0.2377,-0.226,-0.2264,-0.2135,-0.2095,-0.1956,-0.2007,-0.1943,-0.1892,-0.2116,-0.2113,-0.211,0,-0.2063,-0.2081,-0.2161,-0.2176,-0.2207,-0.2247,-0.2269,-0.2362,-0.2383,-0.2444,-0.2429,-0.2412,-0.2347,-0.2255,-0.2181,-0.2091,-0.2127,-0.1942,-0.1934,-0.1915,-0.1955,-0.201,-0.1977,-0.1771,-0.1766,-0.1762,-0.1758,0,-0.197,-0.1997,-0.2025,-0.206,-0.2087,-0.2115,-0.2161,-0.2164,-0.2259,-0.226,-0.2225,-0.218,-0.2119,-0.1961,-0.1888,-0.1828,-0.1887,-0.1853,-0.1865,-0.1698,-0.1723,-0.1671,-0.1855,-0.1722,-0.1726,-0.1728,-0.173,-0.1732,-0.1867,-0.1861,-0.1899,-0.1914,-0.1943,-0.1929,-0.1857,-0.1897,-0.1866,-0.1758,-0.1939,-0.1774,-0.179,-0.1638,-0.1602,-0.1499,-0.1599,-0.1446,-0.1514,-0.1577,-0.1506,-0.1602,-0.1424,-0.1426,-0.1428,-0.1429,-0.143,0,-0.1736,-0.1745,-0.1755,-0.174,-0.1683,-0.1762,-0.1732,-0.1606,-0.144,-0.138,-0.1309,-0.1298,-0.1236,-0.1268,-0.1258,-0.1197,-0.1201,-0.1179,-0.1235,-0.1221,-0.1305,-0.1265,-0.1005,-0.1005,-0.1005,-0.1005,-0.1005,-0.1005,-0.1667,-0.163,-0.1639,-0.1484,-0.1451,-0.1296,-0.1216,-0.1046,-0.093,-0.0689,-0.0592,-0.0573,-0.0861,-0.1145,-0.1151,-0.1092,-0.1111,-0.1045,-0.1129,-0.1204,-0.1235,-0.1265,-0.1235,-0.0973,-0.0974,-0.0959,-0.0959,-0.0959]},{"header":{"parameterUnit":"m.s-1","parameterCategory":2,"la1":30.2991,"la2":30.254,"lo1":-89.0895,"lo2":-89.0444,"dy":0.0017,"dx":0.0017,"nx":28,"ny":28,"refTime":"2024-07-19T21:00:00:Z","depth":"0","parameterNumber":3,"parameterNumberName":"V-component_of_CURRENTS"},"data":[0,0,0,0,0,0,0,0,0,0,0,0,0,0,0,0,0,0,0,0,0,0,0,0,0,0,0,0,0,0,0,0,0,0,0,0,0,0,0,0,0,0,0,0,0,0,0,0,0,0,0,0,0,0,0,0,0,0,-0.0097,-0.0096,0,-0.0019,-0.0018,-0.0017,0.0046,0.0047,0.0047,0.0048,0.0151,0.0153,0.0155,0,0,0,0,0,0,0,0,0,0,0,0,0,-0.0147,-0.0146,-0.0097,-0.0096,-0.0096,-0.002,-0.0018,-0.0017,0.0046,0.0047,0.0047,0.0048,0.015,0.0153,0.0155,0,0,0,0,0,0,0,0,0,0,0,0,0,-0.0101,-0.0146,-0.0097,-0.0056,-0.0052,-0.002,-0.0018,-0.0017,0.0046,0.0047,0.0047,0.0048,0.0149,0.0152,0.0156,0.0162,0,0,0.0166,0.0168,0,0,0,0,0,0,0,0,-0.0104,-0.0099,-0.0063,-0.0059,-0.0054,0.0003,0.0002,0.0044,0.0046,0.0011,0.0048,0.0048,0.0102,0.0109,0.0124,0.0167,0.0172,0.0167,0.0169,0.017,0.0171,0,0,0,0,0,0,0,-0.0107,-0.0102,-0.0064,-0.0062,-0.0057,-0.0027,-0.002,0.001,0.0053,0.0014,0.0018,0.0024,0.0105,0.0121,0.0127,0.0173,0.0167,0.017,0.0172,0.0173,0.0248,0.0248,0,0,0,0,0,0,-0.0124,-0.0105,-0.0067,-0.0062,-0.008,-0.0027,-0.0019,-0.0015,0.0052,0.0063,0.0023,0.0026,0.0115,0.0123,0.0131,0.0146,0.017,0.0173,0.0175,0.0248,0.0248,0.0248,0,0,0,0,0,0,-0.0125,-0.0121,-0.007,-0.0083,-0.0075,-0.0027,-0.0023,-0.0014,0.0003,0.0059,0.007,0.003,0.0116,0.0126,0.0159,0.015,0.0175,0.0178,0.0248,0.0248,0.0248,0.0173,0,0,0,0,0,0,-0.0127,-0.0122,-0.0127,-0.0085,-0.0075,-0.006,-0.0023,-0.0013,0.0004,0.001,0.0068,0.0079,0.0117,0.0153,0.0162,0.0155,0.0181,0.0248,0.0248,0.0248,0.0176,0.0171,0.0166,0,0,0,0,0,-0.0129,-0.0143,-0.0128,-0.0123,-0.0083,-0.0061,-0.0054,-0.0015,0.0004,0.0004,0.0049,0.0077,0.0159,0.0156,0.0166,0.016,0.0249,0.0248,0.0248,0.0178,0.0172,0.0166,0,0,0,0,0,0,-0.0167,-0.0137,-0.0119,-0.0123,-0.0098,-0.0051,-0.005,-0.0023,0.0013,0.0019,0.0075,0.0088,0.0113,0.0148,0.0143,0.0183,0.0209,0.0211,0.0152,0.0146,0.0141,0.013,0.0184,0,0,0,0,0,-0.018,-0.0182,-0.0145,-0.0149,-0.014,-0.0096,-0.0083,-0.0057,-0.002,-0.0003,0.0038,0.0083,0.012,0.0141,0.0177,0.0197,0.0238,0.0201,0.0196,0.0192,0.0191,0.0242,0.0242,0.0248,0.0248,0.0248,0,0,-0.0197,-0.0181,-0.0182,-0.0158,-0.0134,-0.013,-0.0086,-0.0073,-0.0065,0.0001,0.0021,0.0065,0.0122,0.0146,0.016,0.0174,0.0212,0.0192,0.0187,0.0189,0.0242,0.0242,0.0241,0.0248,0.0248,0.0248,0,0,-0.0238,-0.0218,-0.0235,-0.0218,-0.0192,-0.0162,-0.0162,-0.012,-0.0096,-0.0072,-0.0021,0.0018,0.007,0.0113,0.0141,0.0131,0.0183,0.0141,0.0109,0.0159,0.0159,0.0159,0.0207,0.0213,0.0141,0.014,0.014,0,-0.0261,-0.0275,-0.0237,-0.0246,-0.024,-0.0181,-0.0195,-0.0163,-0.0115,-0.0097,-0.0077,0.0012,0.0056,0.0098,0.0097,0.0119,0.0157,0.0123,0.0151,0.0153,0.0154,0.0204,0.0211,0.0137,0.0137,0.0138,0.0138,0,-0.031,-0.0322,-0.0331,-0.0322,-0.0307,-0.0311,-0.0263,-0.0243,-0.0206,-0.0167,-0.0122,-0.0054,0.0,0.002,0.0056,0.009,0.0115,0.0135,0.0161,0.0149,0.0203,0.0211,0.0132,0.0133,0.0134,0.0135,0,0,-0.0364,-0.0367,-0.0372,-0.0385,-0.0349,-0.0345,-0.0327,-0.0293,-0.0277,-0.0223,-0.0195,-0.0127,-0.0081,-0.0046,0.0009,0.0055,0.0098,0.0094,0.0099,0.0134,0.0209,0.0264,0.028,0.0122,0.0123,0.0124,0.024,0,-0.0417,-0.0465,-0.0441,-0.0476,-0.0494,-0.0435,-0.042,-0.0377,-0.0325,-0.0281,-0.02,-0.0154,-0.0108,-0.0079,-0.0027,0.0073,0.0117,0.0065,0.0223,0.0228,0.0273,0.029,0.0337,0.0448,0.0249,0.025,0.0251,0,-0.0475,-0.05,-0.055,-0.0555,-0.0554,-0.0555,-0.0516,-0.0496,-0.041,-0.0368,-0.03,-0.0228,-0.0144,-0.0107,0.0048,0.0012,0.0098,0.0173,0.018,0.0265,0.03,0.0431,0.0472,0.0616,0.0265,0.0264,0.0263,0,-0.0543,-0.0576,-0.0622,-0.0625,-0.0613,-0.0613,-0.0595,-0.0525,-0.0501,-0.0418,-0.0385,-0.0274,-0.0205,-0.0092,0.0071,0.0058,0.0247,0.0251,0.038,0.0385,0.0474,0.0486,0.0669,0.0348,0.0348,0.0347,0.0347,0,-0.0612,-0.0649,-0.0659,-0.0685,-0.0722,-0.0681,-0.0688,-0.0647,-0.0576,-0.0532,-0.0437,-0.0366,-0.0197,-0.0061,0.0063,0.0262,0.0245,0.0384,0.0423,0.045,0.0457,0.0627,0.068,0.0352,0.0351,0.035,0.0349,0,-0.0678,-0.0689,-0.0742,-0.0753,-0.0758,-0.078,-0.0759,-0.075,-0.0678,-0.0614,-0.0588,-0.0422,-0.0232,-0.006,0.0156,0.0266,0.0538,0.0503,0.0525,0.0565,0.0806,0.0852,0.1056,0.1155,0.066,0.0662,0.0664,0,-0.0717,-0.0752,-0.08,-0.0831,-0.0839,-0.0862,-0.0866,-0.0809,-0.078,-0.0631,-0.0594,-0.0403,-0.0227,0.0101,0.0327,0.0563,0.0654,0.0724,0.0707,0.0842,0.0922,0.0932,0.1,0.0797,0.08,0.0802,0.0804,0,-0.0778,-0.0793,-0.0835,-0.09,-0.0928,-0.0943,-0.0935,-0.0911,-0.0807,-0.0709,-0.0523,-0.0369,-0.0065,0.0257,0.0544,0.0673,0.0844,0.0777,0.092,0.1053,0.1074,0.118,0.0693,0.0824,0.0822,0.0821,0.0819,0.0819,-0.0809,-0.0856,-0.0903,-0.0953,-0.0981,-0.0957,-0.0912,-0.0859,-0.0742,-0.0507,-0.0409,-0.008,0.0209,0.0642,0.0793,0.1102,0.1038,0.1179,0.1227,0.1225,0.1321,0.0876,0.1045,0.1044,0.1043,0.1043,0.1042,0,-0.0837,-0.0882,-0.0946,-0.0965,-0.0952,-0.0965,-0.09,-0.0792,-0.0588,-0.0381,-0.0136,0.038,0.0735,0.1008,0.1375,0.1542,0.1568,0.1608,0.1641,0.1692,0.1316,0.1322,0.1555,0.1555,0.1554,0.1554,0.1554,0.1554,-0.0854,-0.0916,-0.0944,-0.0909,-0.0896,-0.0799,-0.072,-0.0555,-0.0374,0.0056,0.0429,0.068,0.1049,0.1554,0.1905,0.1935,0.2094,0.2054,0.2143,0.1886,0.1849,0.1813,0.1834,0.217,0.2171,0.2507,0.2511,0.2513]}],[{"header":{"parameterUnit":"m.s-1","parameterCategory":2,"la1":30.2991,"la2":30.254,"lo1":-89.0895,"lo2":-89.0444,"dy":0.0017,"dx":0.0017,"nx":28,"ny":28,"refTime":"2024-07-19T21:00:00:Z","depth":"2","parameterNumber":2,"parameterNumberName":"U-component_of_CURRENTS"},"data":[0,0,0,0,0,0,0,0,0,0,0,0,0,0,0,0,0,0,0,0,0,0,0,0,0,0,0,0,0,0,0,0,0,0,0,0,0,0,0,0,0,0,0,0,0,0,0,0,0,0,0,0,0,0,0,0,0,0,-0.2239,-0.2239,0,-0.2273,-0.2273,-0.2273,-0.2248,-0.2247,-0.2246,-0.2245,-0.2235,-0.2236,-0.2236,0,0,0,0,0,0,0,0,0,0,0,0,0,-0.2162,-0.2163,-0.2239,-0.2239,-0.224,-0.2273,-0.2273,-0.2273,-0.2248,-0.2247,-0.2246,-0.2245,-0.2235,-0.2236,-0.2236,0,0,0,0,0,0,0,0,0,0,0,0,0,-0.2193,-0.2163,-0.2239,-0.2233,-0.2233,-0.2273,-0.2273,-0.2273,-0.2248,-0.2247,-0.2245,-0.2244,-0.2235,-0.2236,-0.2237,-0.2268,0,0,-0.2239,-0.2239,0,0,0,0,0,0,0,0,-0.2191,-0.2195,-0.2233,-0.2234,-0.2234,-0.2257,-0.2242,-0.227,-0.2248,-0.224,-0.2245,-0.2244,-0.2241,-0.2241,-0.2248,-0.2268,-0.2267,-0.2239,-0.224,-0.224,-0.224,0,0,0,0,0,0,0,-0.2189,-0.2194,-0.225,-0.2234,-0.2235,-0.2232,-0.2235,-0.2247,-0.2245,-0.2241,-0.2239,-0.2247,-0.224,-0.2247,-0.2247,-0.2267,-0.2239,-0.224,-0.224,-0.2241,-0.2307,-0.2308,0,0,0,0,0,0,-0.2191,-0.2192,-0.2249,-0.2251,-0.2211,-0.2235,-0.2238,-0.2249,-0.2246,-0.2245,-0.2249,-0.2246,-0.2246,-0.2246,-0.2247,-0.2278,-0.224,-0.2241,-0.2241,-0.2306,-0.2307,-0.2308,0,0,0,0,0,0,-0.2189,-0.2196,-0.2247,-0.2224,-0.223,-0.2238,-0.225,-0.225,-0.2253,-0.2253,-0.225,-0.2251,-0.2245,-0.2246,-0.2262,-0.2277,-0.2241,-0.2242,-0.2304,-0.2306,-0.2308,-0.2343,0,0,0,0,0,0,-0.2187,-0.2195,-0.2201,-0.2224,-0.2232,-0.2274,-0.2252,-0.2252,-0.2262,-0.2259,-0.2255,-0.2252,-0.2244,-0.2261,-0.2263,-0.2278,-0.2243,-0.2303,-0.2305,-0.2307,-0.2341,-0.2346,-0.2351,0,0,0,0,0,-0.2184,-0.2199,-0.2201,-0.2208,-0.2241,-0.2276,-0.228,-0.2278,-0.2263,-0.2273,-0.227,-0.2252,-0.2277,-0.2263,-0.2265,-0.228,-0.2301,-0.2304,-0.2307,-0.2338,-0.2345,-0.2351,0,0,0,0,0,0,-0.2164,-0.22,-0.2201,-0.2224,-0.225,-0.2272,-0.2281,-0.2283,-0.229,-0.2283,-0.2272,-0.2271,-0.2291,-0.2286,-0.2271,-0.2307,-0.2285,-0.2289,-0.2309,-0.2315,-0.232,-0.2315,-0.2243,0,0,0,0,0,-0.2166,-0.2186,-0.2219,-0.2236,-0.2251,-0.2266,-0.2278,-0.2284,-0.2296,-0.2297,-0.2295,-0.2296,-0.2307,-0.231,-0.2319,-0.2342,-0.2321,-0.2353,-0.2358,-0.2363,-0.2361,-0.2348,-0.2351,-0.2318,-0.2318,-0.2318,0,0,-0.2161,-0.2184,-0.2193,-0.2233,-0.2249,-0.2282,-0.2269,-0.2295,-0.2317,-0.2296,-0.2317,-0.2317,-0.2319,-0.2342,-0.235,-0.2337,-0.2362,-0.2366,-0.237,-0.2366,-0.2351,-0.2354,-0.2357,-0.232,-0.2319,-0.2319,0,0,-0.217,-0.2186,-0.2208,-0.2237,-0.2273,-0.2291,-0.23,-0.2329,-0.2334,-0.2363,-0.2351,-0.236,-0.2378,-0.238,-0.2384,-0.2426,-0.2392,-0.243,-0.245,-0.2437,-0.2439,-0.2441,-0.2417,-0.2416,-0.243,-0.243,-0.2431,0,-0.2162,-0.2196,-0.2219,-0.2254,-0.2278,-0.2297,-0.2329,-0.2349,-0.2377,-0.2383,-0.2373,-0.2395,-0.2396,-0.2418,-0.2433,-0.2437,-0.2418,-0.2424,-0.2442,-0.2443,-0.2444,-0.2419,-0.2418,-0.2433,-0.2432,-0.2432,-0.2432,0,-0.2189,-0.2222,-0.2239,-0.2289,-0.232,-0.2351,-0.2389,-0.241,-0.2416,-0.2428,-0.2448,-0.245,-0.2456,-0.2464,-0.2462,-0.2477,-0.2457,-0.245,-0.2421,-0.2449,-0.2422,-0.2419,-0.2435,-0.2435,-0.2434,-0.2434,0,0,-0.2153,-0.2241,-0.2245,-0.2275,-0.234,-0.2365,-0.2412,-0.2451,-0.2464,-0.2485,-0.2493,-0.252,-0.2506,-0.251,-0.2506,-0.2499,-0.2493,-0.248,-0.2478,-0.2447,-0.2454,-0.2359,-0.2347,-0.2485,-0.2485,-0.2485,-0.243,0,-0.2162,-0.223,-0.2273,-0.2331,-0.2369,-0.241,-0.2448,-0.2485,-0.2503,-0.2516,-0.2519,-0.2527,-0.2529,-0.2524,-0.2523,-0.2502,-0.2489,-0.2508,-0.2439,-0.2437,-0.2342,-0.2342,-0.2167,-0.2096,-0.2428,-0.2427,-0.2427,0,-0.2169,-0.2215,-0.2276,-0.2354,-0.2371,-0.2406,-0.2455,-0.2492,-0.2525,-0.2536,-0.2547,-0.2544,-0.255,-0.2537,-0.2514,-0.2524,-0.2493,-0.2472,-0.2469,-0.2365,-0.2338,-0.2123,-0.2079,-0.2423,-0.2423,-0.2423,-0.2424,0,-0.2124,-0.2214,-0.2258,-0.2287,-0.2377,-0.24,-0.2438,-0.2487,-0.251,-0.2537,-0.2544,-0.2553,-0.2545,-0.2523,-0.2491,-0.25,-0.2446,-0.245,-0.2334,-0.2327,-0.2155,-0.2132,-0.2421,-0.2421,-0.2421,-0.2421,-0.2421,0,-0.2116,-0.2146,-0.2238,-0.2259,-0.2293,-0.2371,-0.2399,-0.2437,-0.2487,-0.2498,-0.2539,-0.2531,-0.254,-0.2514,-0.2485,-0.2394,-0.244,-0.2328,-0.2303,-0.2163,-0.2142,-0.2411,-0.241,-0.2419,-0.242,-0.242,-0.242,0,-0.205,-0.2121,-0.2164,-0.2251,-0.2273,-0.2288,-0.2366,-0.2384,-0.2449,-0.2463,-0.247,-0.251,-0.2461,-0.2451,-0.2402,-0.2368,-0.2303,-0.2258,-0.2087,-0.2043,-0.2195,-0.2198,-0.2121,-0.2118,-0.2114,-0.2112,-0.2109,0,-0.2021,-0.204,-0.2121,-0.2136,-0.2169,-0.2213,-0.2239,-0.2335,-0.2361,-0.243,-0.2422,-0.2408,-0.2349,-0.2256,-0.2176,-0.2084,-0.2183,-0.1901,-0.1886,-0.2179,-0.2163,-0.2171,-0.2178,-0.1675,-0.1669,-0.1664,-0.1661,0,-0.1938,-0.1965,-0.1993,-0.2028,-0.2058,-0.2091,-0.2142,-0.2165,-0.2265,-0.2291,-0.2282,-0.2241,-0.2144,-0.1958,-0.1866,-0.18,-0.1904,-0.1802,-0.2137,-0.1781,-0.1754,-0.1741,-0.1762,-0.1619,-0.1624,-0.1627,-0.1629,-0.163,-0.1845,-0.184,-0.1876,-0.1886,-0.1921,-0.1931,-0.1911,-0.1989,-0.2005,-0.202,-0.2081,-0.1971,-0.19,-0.164,-0.1536,-0.1468,-0.1598,-0.1548,-0.1564,-0.1584,-0.1546,-0.1514,-0.1327,-0.133,-0.1332,-0.1334,-0.1335,0,-0.1723,-0.1726,-0.1734,-0.1735,-0.1696,-0.1783,-0.1808,-0.176,-0.1729,-0.1801,-0.1779,-0.1531,-0.139,-0.1331,-0.1147,-0.1108,-0.1117,-0.1073,-0.1089,-0.1129,-0.1165,-0.1108,-0.0772,-0.077,-0.0769,-0.0768,0,0,-0.1659,-0.1615,-0.1615,-0.1495,-0.1501,-0.1418,-0.1406,-0.1377,-0.1382,-0.1333,-0.1307,-0.1391,-0.1323,-0.1073,-0.0986,-0.0859,-0.1,-0.0814,-0.1263,-0.1324,-0.1359,-0.1425,-0.138,0,0,0,0,0]},{"header":{"parameterUnit":"m.s-1","parameterCategory":2,"la1":30.2991,"la2":30.254,"lo1":-89.0895,"lo2":-89.0444,"dy":0.0017,"dx":0.0017,"nx":28,"ny":28,"refTime":"2024-07-19T21:00:00:Z","depth":"2","parameterNumber":3,"parameterNumberName":"V-component_of_CURRENTS"},"data":[0,0,0,0,0,0,0,0,0,0,0,0,0,0,0,0,0,0,0,0,0,0,0,0,0,0,0,0,0,0,0,0,0,0,0,0,0,0,0,0,0,0,0,0,0,0,0,0,0,0,0,0,0,0,0,0,0,0,-0.0183,-0.0183,0,-0.0106,-0.0105,-0.0104,-0.0045,-0.0045,-0.0044,-0.0044,0.0057,0.0059,0.0061,0,0,0,0,0,0,0,0,0,0,0,0,0,-0.0234,-0.0234,-0.0184,-0.0183,-0.0182,-0.0106,-0.0105,-0.0104,-0.0045,-0.0045,-0.0044,-0.0044,0.0056,0.0059,0.0061,0,0,0,0,0,0,0,0,0,0,0,0,0,-0.0188,-0.0233,-0.0184,-0.0145,-0.0141,-0.0107,-0.0105,-0.0104,-0.0045,-0.0045,-0.0044,-0.0043,0.0055,0.0058,0.0062,0.0071,0,0,0.0072,0.0074,0,0,0,0,0,0,0,0,-0.0191,-0.0186,-0.0151,-0.0147,-0.0143,-0.0086,-0.0086,-0.0045,-0.0045,-0.0079,-0.0044,-0.0043,0.0009,0.0017,0.0032,0.0076,0.008,0.0073,0.0075,0.0076,0.0077,0,0,0,0,0,0,0,-0.0194,-0.0189,-0.0151,-0.015,-0.0145,-0.0115,-0.0109,-0.0078,-0.0038,-0.0076,-0.0072,-0.0067,0.0012,0.0029,0.0035,0.0082,0.0072,0.0076,0.0078,0.0079,0.0156,0.0156,0,0,0,0,0,0,-0.0211,-0.0193,-0.0154,-0.0149,-0.0168,-0.0115,-0.0107,-0.0103,-0.0038,-0.0028,-0.0067,-0.0064,0.0022,0.0031,0.0039,0.0058,0.0076,0.0079,0.0081,0.0156,0.0156,0.0156,0,0,0,0,0,0,-0.0212,-0.0208,-0.0157,-0.017,-0.0162,-0.0116,-0.0111,-0.0102,-0.0085,-0.0032,-0.0021,-0.006,0.0023,0.0034,0.0066,0.0062,0.0081,0.0084,0.0156,0.0156,0.0156,0.0094,0,0,0,0,0,0,-0.0214,-0.0209,-0.0213,-0.0171,-0.0162,-0.0145,-0.0112,-0.0101,-0.0083,-0.0079,-0.0022,-0.0012,0.0024,0.0061,0.007,0.0067,0.0087,0.0156,0.0156,0.0156,0.0096,0.0092,0.0088,0,0,0,0,0,-0.0216,-0.0227,-0.0214,-0.0209,-0.0169,-0.0146,-0.0138,-0.0102,-0.0084,-0.0083,-0.004,-0.0013,0.0067,0.0063,0.0074,0.0072,0.0156,0.0156,0.0156,0.0098,0.0092,0.0088,0,0,0,0,0,0,-0.0251,-0.0221,-0.0206,-0.0207,-0.0183,-0.0137,-0.0134,-0.0108,-0.0073,-0.0067,-0.0014,-0.0001,0.0025,0.0057,0.0052,0.0095,0.0116,0.0117,0.0068,0.0064,0.006,0.0049,0.009,0,0,0,0,0,-0.0263,-0.0264,-0.0228,-0.023,-0.022,-0.0178,-0.0164,-0.014,-0.0104,-0.0087,-0.0048,-0.0004,0.0032,0.0054,0.0087,0.0111,0.0149,0.0117,0.0113,0.0109,0.0108,0.0162,0.0163,0.0155,0.0155,0.0155,0,0,-0.0279,-0.0262,-0.0263,-0.0238,-0.0215,-0.0209,-0.0168,-0.0154,-0.0144,-0.0083,-0.006,-0.002,0.0034,0.006,0.0075,0.0088,0.0131,0.0109,0.0106,0.0107,0.0162,0.0163,0.0164,0.0155,0.0155,0.0155,0,0,-0.0314,-0.0295,-0.0308,-0.0291,-0.0264,-0.0236,-0.0236,-0.0194,-0.017,-0.0145,-0.0098,-0.0058,-0.0008,0.0035,0.0063,0.0058,0.0105,0.0065,0.0042,0.0093,0.0094,0.0096,0.014,0.0145,0.0068,0.0067,0.0067,0,-0.0334,-0.0344,-0.0309,-0.0315,-0.0306,-0.0253,-0.0262,-0.0231,-0.0184,-0.0164,-0.0148,-0.0061,-0.0018,0.0029,0.0028,0.0049,0.0082,0.0053,0.0088,0.009,0.0093,0.0137,0.0144,0.0064,0.0065,0.0065,0.0065,0,-0.0375,-0.0383,-0.0389,-0.0378,-0.0362,-0.0363,-0.0316,-0.0296,-0.0261,-0.0223,-0.0176,-0.0112,-0.0058,-0.0039,-0.0006,0.0033,0.0051,0.0072,0.0096,0.0089,0.0137,0.0146,0.006,0.0061,0.0062,0.0063,0,0,-0.0423,-0.0421,-0.0425,-0.0434,-0.0397,-0.0391,-0.037,-0.0334,-0.0315,-0.0263,-0.0231,-0.0164,-0.0122,-0.0088,-0.0037,0.001,0.0055,0.0042,0.0047,0.0079,0.0165,0.0201,0.0214,0.008,0.0082,0.0083,0.0189,0,-0.0468,-0.0506,-0.0481,-0.0508,-0.0521,-0.0465,-0.0447,-0.0403,-0.0353,-0.0308,-0.0228,-0.0182,-0.0142,-0.0114,-0.0061,0.0031,0.0076,0.0024,0.0173,0.0177,0.0205,0.0225,0.021,0.0306,0.0198,0.0199,0.02,0,-0.0517,-0.0536,-0.0576,-0.0575,-0.0573,-0.0571,-0.053,-0.0507,-0.0421,-0.038,-0.0312,-0.0243,-0.0158,-0.0128,0.002,-0.0015,0.0064,0.0133,0.0139,0.0201,0.023,0.0298,0.0327,0.0215,0.0214,0.0213,0.0212,0,-0.0578,-0.0602,-0.064,-0.0641,-0.0624,-0.0622,-0.0602,-0.0531,-0.0506,-0.0422,-0.0389,-0.0278,-0.0213,-0.0103,0.0043,0.0033,0.0208,0.0215,0.0321,0.0324,0.0356,0.0361,0.0311,0.0311,0.0311,0.031,0.031,0,-0.0639,-0.0669,-0.0675,-0.0697,-0.0728,-0.0685,-0.0688,-0.0647,-0.0574,-0.0536,-0.0435,-0.0367,-0.0203,-0.0078,0.0038,0.0214,0.0208,0.0324,0.0359,0.0334,0.0335,0.0291,0.0287,0.0314,0.0313,0.0313,0.0312,0,-0.0701,-0.0708,-0.0753,-0.0758,-0.0762,-0.0782,-0.0758,-0.0749,-0.0673,-0.0616,-0.059,-0.0424,-0.0249,-0.0086,0.0118,0.0216,0.0372,0.043,0.0387,0.0416,0.0451,0.0443,0.0559,0.0562,0.0563,0.0565,0.0566,0,-0.0737,-0.0769,-0.081,-0.0843,-0.085,-0.0869,-0.0874,-0.081,-0.0786,-0.0638,-0.0609,-0.0424,-0.0267,0.0038,0.0246,0.0461,0.044,0.0553,0.0534,0.0457,0.0479,0.0468,0.0458,0.0551,0.0553,0.0553,0.0554,0,-0.0798,-0.0812,-0.0849,-0.0921,-0.0951,-0.0983,-0.0978,-0.0975,-0.0873,-0.0781,-0.0612,-0.0467,-0.0149,0.0123,0.0388,0.0498,0.0518,0.058,0.0531,0.0486,0.0458,0.0476,0.0465,0.0562,0.0562,0.0561,0.056,0.056,-0.0834,-0.0881,-0.0931,-0.0993,-0.1039,-0.1084,-0.1108,-0.1062,-0.0997,-0.0846,-0.0642,-0.0397,-0.0107,0.0282,0.0487,0.0638,0.0628,0.0658,0.0652,0.0645,0.0621,0.0597,0.0723,0.0723,0.0723,0.0723,0.0723,0,-0.0876,-0.0928,-0.0998,-0.1082,-0.1148,-0.1149,-0.1162,-0.114,-0.1062,-0.0855,-0.0639,-0.0289,0.0031,0.0284,0.0562,0.0745,0.071,0.0743,0.0676,0.0668,0.0661,0.0634,0.0742,0.0742,0.0742,0.0743,0,0,-0.0902,-0.0976,-0.1015,-0.1143,-0.1211,-0.1266,-0.1277,-0.1208,-0.1058,-0.0841,-0.0632,-0.0326,0.0038,0.0241,0.0485,0.0622,0.0583,0.0614,0.0583,0.047,0.0461,0.0601,0.0549,0,0,0,0,0]}],[{"header":{"parameterUnit":"m.s-1","parameterCategory":2,"la1":30.2991,"la2":30.254,"lo1":-89.0895,"lo2":-89.0444,"dy":0.0017,"dx":0.0017,"nx":28,"ny":28,"refTime":"2024-07-19T21:00:00:Z","depth":"4","parameterNumber":2,"parameterNumberName":"U-component_of_CURRENTS"},"data":[0,0,0,0,0,0,0,0,0,0,0,0,0,0,0,0,0,0,0,0,0,0,0,0,0,0,0,0,0,0,0,0,0,0,0,0,0,0,0,0,0,0,0,0,0,0,0,0,0,0,0,0,0,0,0,0,0,0,-0.1646,-0.1647,0,-0.1723,-0.1724,-0.1724,-0.1763,-0.1763,-0.1763,-0.1763,-0.1834,-0.1836,-0.1837,0,0,0,0,0,0,0,0,0,0,0,0,0,-0.1544,-0.1545,-0.1645,-0.1647,-0.1648,-0.1723,-0.1724,-0.1725,-0.1763,-0.1763,-0.1763,-0.1763,-0.1833,-0.1835,-0.1837,0,0,0,0,0,0,0,0,0,0,0,0,0,-0.1599,-0.1546,-0.1645,-0.1677,-0.1681,-0.1723,-0.1724,-0.1725,-0.1763,-0.1763,-0.1763,-0.1764,-0.1833,-0.1835,-0.1838,-0.1849,0,0,-0.1846,-0.1847,0,0,0,0,0,0,0,0,-0.1596,-0.1603,-0.1671,-0.1675,-0.1679,-0.1735,-0.1714,-0.1767,-0.1763,-0.173,-0.1763,-0.1764,-0.1801,-0.1806,-0.1818,-0.1852,-0.1855,-0.1846,-0.1847,-0.1849,-0.1849,0,0,0,0,0,0,0,-0.1592,-0.16,-0.1674,-0.1673,-0.1677,-0.1692,-0.17,-0.1724,-0.1762,-0.1733,-0.1736,-0.1747,-0.1803,-0.1815,-0.182,-0.1856,-0.1846,-0.1848,-0.185,-0.1851,-0.1971,-0.1973,0,0,0,0,0,0,-0.1585,-0.1596,-0.1672,-0.1677,-0.1639,-0.1694,-0.1702,-0.1715,-0.1762,-0.177,-0.1747,-0.1749,-0.1811,-0.1817,-0.1823,-0.1902,-0.1849,-0.1851,-0.1852,-0.1969,-0.1971,-0.1973,0,0,0,0,0,0,-0.1583,-0.1591,-0.1669,-0.1639,-0.1651,-0.1695,-0.171,-0.1717,-0.1756,-0.1773,-0.178,-0.1782,-0.1811,-0.1819,-0.1872,-0.1902,-0.1852,-0.1855,-0.1967,-0.197,-0.1972,-0.2019,0,0,0,0,0,0,-0.158,-0.159,-0.1611,-0.1639,-0.1652,-0.1713,-0.171,-0.1718,-0.1762,-0.1766,-0.1805,-0.181,-0.1812,-0.1869,-0.1875,-0.1905,-0.1857,-0.1965,-0.1969,-0.1971,-0.2015,-0.2023,-0.2029,0,0,0,0,0,-0.1576,-0.16,-0.1612,-0.1622,-0.1675,-0.1715,-0.1723,-0.1754,-0.1764,-0.1789,-0.1818,-0.181,-0.1892,-0.1872,-0.1879,-0.1911,-0.1964,-0.1968,-0.1971,-0.2012,-0.2021,-0.2029,0,0,0,0,0,0,-0.1568,-0.1607,-0.162,-0.1656,-0.1692,-0.1722,-0.1753,-0.1771,-0.1814,-0.1825,-0.1835,-0.1843,-0.1899,-0.1902,-0.188,-0.1955,-0.1926,-0.1931,-0.1955,-0.1963,-0.197,-0.1962,-0.1859,0,0,0,0,0,-0.1575,-0.1605,-0.1641,-0.1673,-0.1693,-0.1728,-0.1754,-0.1776,-0.1811,-0.1831,-0.1858,-0.1888,-0.1916,-0.1938,-0.1963,-0.2008,-0.1987,-0.2032,-0.2039,-0.2044,-0.2043,-0.2038,-0.2044,-0.1985,-0.1985,-0.1985,0,0,-0.1582,-0.1608,-0.1626,-0.1675,-0.1705,-0.1744,-0.1745,-0.1794,-0.1832,-0.1832,-0.1899,-0.1917,-0.1934,-0.1983,-0.2008,-0.1992,-0.2051,-0.2049,-0.2054,-0.205,-0.2042,-0.2048,-0.2053,-0.1988,-0.1987,-0.1987,0,0,-0.1602,-0.1634,-0.1664,-0.1699,-0.1752,-0.1775,-0.1796,-0.1844,-0.1875,-0.1935,-0.1942,-0.1978,-0.2031,-0.2043,-0.2055,-0.2116,-0.2087,-0.213,-0.216,-0.2155,-0.2159,-0.2163,-0.2141,-0.2142,-0.2133,-0.2133,-0.2133,0,-0.1611,-0.165,-0.1681,-0.172,-0.1754,-0.1792,-0.1834,-0.1871,-0.1934,-0.1958,-0.1966,-0.2037,-0.2055,-0.2097,-0.2121,-0.213,-0.2116,-0.2125,-0.2162,-0.2165,-0.2167,-0.2144,-0.2145,-0.2136,-0.2136,-0.2135,-0.2135,0,-0.1642,-0.1689,-0.1713,-0.1773,-0.1814,-0.186,-0.191,-0.1958,-0.1997,-0.2024,-0.2085,-0.2109,-0.2143,-0.216,-0.2163,-0.2197,-0.2178,-0.2169,-0.2135,-0.2176,-0.2149,-0.2149,-0.214,-0.2139,-0.2138,-0.2137,0,0,-0.1618,-0.1716,-0.1727,-0.1767,-0.1848,-0.1881,-0.1952,-0.2013,-0.2051,-0.2108,-0.2146,-0.2202,-0.2207,-0.222,-0.2226,-0.223,-0.224,-0.2214,-0.2213,-0.2182,-0.2219,-0.2065,-0.2049,-0.2238,-0.2238,-0.2238,-0.2192,0,-0.1636,-0.1712,-0.176,-0.184,-0.1883,-0.1945,-0.2002,-0.2063,-0.2111,-0.2157,-0.2183,-0.2224,-0.2232,-0.2248,-0.2257,-0.2246,-0.2243,-0.2253,-0.2194,-0.2191,-0.204,-0.2044,-0.224,-0.2191,-0.2191,-0.2191,-0.2191,0,-0.1642,-0.1696,-0.1776,-0.1874,-0.1898,-0.1954,-0.2041,-0.2096,-0.2164,-0.2198,-0.2238,-0.2254,-0.2284,-0.2275,-0.2273,-0.228,-0.2257,-0.224,-0.2238,-0.2074,-0.2035,-0.2144,-0.2189,-0.2189,-0.2189,-0.219,-0.219,0,-0.1595,-0.1704,-0.1769,-0.1805,-0.1918,-0.1968,-0.2028,-0.2109,-0.2152,-0.2217,-0.2243,-0.2278,-0.2293,-0.2282,-0.2261,-0.2271,-0.2232,-0.2235,-0.2071,-0.206,-0.2194,-0.219,-0.222,-0.222,-0.222,-0.222,-0.222,0,-0.1577,-0.1631,-0.1758,-0.1791,-0.186,-0.1952,-0.2021,-0.2081,-0.2161,-0.2191,-0.2255,-0.2261,-0.2296,-0.2281,-0.2258,-0.2148,-0.2228,-0.2063,-0.2033,-0.2215,-0.2215,-0.2192,-0.219,-0.2218,-0.2219,-0.2219,-0.2219,0,-0.1506,-0.1596,-0.167,-0.1799,-0.184,-0.1886,-0.2009,-0.2045,-0.2139,-0.2176,-0.2197,-0.2253,-0.221,-0.2215,-0.2181,-0.212,-0.2048,-0.1991,-0.2174,-0.2157,-0.1882,-0.1883,-0.1795,-0.1789,-0.1784,-0.178,-0.1776,0,-0.1472,-0.1507,-0.1647,-0.1684,-0.1746,-0.1835,-0.1883,-0.2009,-0.2043,-0.2142,-0.2134,-0.2142,-0.215,-0.197,-0.1999,-0.1914,-0.1897,-0.1864,-0.1883,-0.1857,-0.1837,-0.1846,-0.1853,-0.1768,-0.1767,-0.1766,-0.1765,0,-0.1391,-0.1454,-0.151,-0.1584,-0.165,-0.171,-0.1794,-0.181,-0.1933,-0.2049,-0.2003,-0.1964,-0.1902,-0.1849,-0.1789,-0.1742,-0.1889,-0.1811,-0.1822,-0.1839,-0.1823,-0.181,-0.1824,-0.1747,-0.175,-0.1751,-0.1752,0,-0.1319,-0.1333,-0.1407,-0.1449,-0.1522,-0.1535,-0.1615,-0.1649,-0.17,-0.1836,-0.181,-0.1815,-0.1876,-0.1757,-0.1707,-0.1635,-0.1613,-0.1584,-0.1606,-0.1626,-0.1589,-0.1546,-0.1342,0,0,0,0,0,-0.1238,-0.1228,-0.1262,-0.1298,-0.1358,-0.1394,-0.1518,-0.1605,-0.1743,-0.1662,-0.1736,-0.1669,-0.1583,-0.1591,-0.1472,-0.161,-0.1611,-0.1468,-0.1589,-0.165,-0.167,-0.1642,0,0,0,0,0,0,-0.1182,-0.1208,-0.1207,-0.1137,-0.113,-0.1179,-0.1249,-0.1361,-0.1337,-0.1486,-0.1435,-0.1558,-0.148,-0.1592,-0.1423,-0.1426,-0.147,-0.1495,-0.1491,-0.1638,-0.1657,-0.1673,-0.1651,0,0,0,0,0]},{"header":{"parameterUnit":"m.s-1","parameterCategory":2,"la1":30.2991,"la2":30.254,"lo1":-89.0895,"lo2":-89.0444,"dy":0.0017,"dx":0.0017,"nx":28,"ny":28,"refTime":"2024-07-19T21:00:00:Z","depth":"4","parameterNumber":3,"parameterNumberName":"V-component_of_CURRENTS"},"data":[0,0,0,0,0,0,0,0,0,0,0,0,0,0,0,0,0,0,0,0,0,0,0,0,0,0,0,0,0,0,0,0,0,0,0,0,0,0,0,0,0,0,0,0,0,0,0,0,0,0,0,0,0,0,0,0,0,0,-0.0165,-0.0165,0,-0.0107,-0.0107,-0.0106,-0.0063,-0.0063,-0.0063,-0.0063,0.0021,0.0023,0.0025,0,0,0,0,0,0,0,0,0,0,0,0,0,-0.0199,-0.0199,-0.0165,-0.0165,-0.0164,-0.0108,-0.0107,-0.0106,-0.0063,-0.0063,-0.0063,-0.0063,0.0021,0.0023,0.0026,0,0,0,0,0,0,0,0,0,0,0,0,0,-0.0166,-0.0199,-0.0165,-0.0138,-0.0135,-0.0108,-0.0107,-0.0105,-0.0063,-0.0063,-0.0063,-0.0062,0.002,0.0023,0.0026,0.0038,0,0,0.0035,0.0037,0,0,0,0,0,0,0,0,-0.0168,-0.0165,-0.0142,-0.0139,-0.0136,-0.0094,-0.0088,-0.0057,-0.0063,-0.0089,-0.0063,-0.0062,-0.0016,-0.001,0.0002,0.0042,0.0046,0.0035,0.0037,0.0039,0.0039,0,0,0,0,0,0,0,-0.017,-0.0167,-0.0141,-0.0142,-0.0138,-0.0114,-0.0109,-0.0082,-0.0053,-0.0086,-0.0084,-0.008,-0.0014,-0.0001,0.0005,0.0047,0.0035,0.0038,0.004,0.0041,0.0111,0.0111,0,0,0,0,0,0,-0.0183,-0.0169,-0.0143,-0.0139,-0.0153,-0.0114,-0.0109,-0.0106,-0.0054,-0.0046,-0.008,-0.0078,-0.0006,0.0001,0.0008,0.0027,0.0039,0.0041,0.0043,0.0111,0.0111,0.0111,0,0,0,0,0,0,-0.0184,-0.0182,-0.0145,-0.0154,-0.0148,-0.0115,-0.0112,-0.0105,-0.0093,-0.005,-0.0041,-0.0075,-0.0006,0.0003,0.0031,0.0031,0.0043,0.0046,0.0111,0.0111,0.0111,0.0065,0,0,0,0,0,0,-0.0186,-0.0182,-0.0187,-0.0155,-0.0148,-0.0136,-0.0112,-0.0105,-0.0092,-0.0089,-0.0043,-0.0034,-0.0005,0.0026,0.0034,0.0035,0.0048,0.0111,0.0111,0.0111,0.0067,0.0064,0.0061,0,0,0,0,0,-0.0187,-0.0196,-0.0188,-0.0185,-0.0155,-0.0137,-0.0131,-0.0105,-0.0092,-0.0091,-0.0057,-0.0036,0.0032,0.0029,0.0038,0.004,0.0111,0.0111,0.0111,0.0068,0.0064,0.0061,0,0,0,0,0,0,-0.0212,-0.0192,-0.0182,-0.0184,-0.0166,-0.0131,-0.0129,-0.011,-0.0082,-0.0078,-0.0035,-0.0025,-0.0002,0.0025,0.002,0.006,0.0075,0.0077,0.0039,0.0036,0.0033,0.0025,0.0051,0,0,0,0,0,-0.0222,-0.0224,-0.0198,-0.0201,-0.0194,-0.0163,-0.0153,-0.0135,-0.0106,-0.0093,-0.0062,-0.0026,0.0005,0.0025,0.0052,0.0076,0.0109,0.0083,0.008,0.0078,0.0077,0.013,0.0132,0.0111,0.0111,0.0111,0,0,-0.0234,-0.0223,-0.0225,-0.0207,-0.019,-0.0185,-0.0155,-0.0145,-0.0136,-0.0089,-0.007,-0.0038,0.0008,0.0032,0.0045,0.0056,0.0099,0.0078,0.0075,0.0077,0.0131,0.0133,0.0135,0.0111,0.0111,0.0111,0,0,-0.0259,-0.0249,-0.0259,-0.0246,-0.0228,-0.0206,-0.0207,-0.0175,-0.0157,-0.0136,-0.0099,-0.0065,-0.0024,0.0015,0.004,0.004,0.0079,0.0044,0.003,0.0081,0.0083,0.0086,0.0121,0.0128,0.0048,0.0048,0.0048,0,-0.0275,-0.0283,-0.0259,-0.0262,-0.0257,-0.022,-0.0226,-0.0201,-0.0165,-0.0147,-0.0139,-0.0064,-0.0029,0.0018,0.0017,0.0034,0.0062,0.0038,0.0077,0.008,0.0084,0.012,0.0127,0.0046,0.0046,0.0046,0.0047,0,-0.0302,-0.031,-0.0315,-0.0308,-0.0296,-0.0298,-0.0263,-0.0247,-0.0223,-0.0192,-0.0151,-0.0098,-0.0051,-0.0035,-0.0009,0.0033,0.0044,0.0062,0.0084,0.0083,0.0121,0.013,0.0043,0.0044,0.0044,0.0045,0,0,-0.0334,-0.0336,-0.034,-0.0348,-0.0322,-0.0319,-0.03,-0.0271,-0.0256,-0.0214,-0.0185,-0.0127,-0.0094,-0.0064,-0.0022,0.0024,0.0068,0.0047,0.0051,0.0079,0.017,0.0156,0.0164,0.0093,0.0094,0.0095,0.0184,0,-0.0365,-0.0394,-0.0378,-0.0399,-0.0409,-0.037,-0.0356,-0.0321,-0.0283,-0.0245,-0.0176,-0.0138,-0.0106,-0.0084,-0.0032,0.0045,0.0089,0.0042,0.017,0.0174,0.0159,0.0174,0.01,0.0191,0.0193,0.0194,0.0195,0,-0.0396,-0.0412,-0.0446,-0.0448,-0.0448,-0.045,-0.042,-0.0402,-0.0331,-0.0299,-0.0239,-0.0183,-0.0105,-0.0083,0.0051,0.0017,0.0085,0.0144,0.0149,0.0159,0.0176,0.0196,0.0211,0.021,0.0208,0.0207,0.0206,0,-0.0437,-0.0459,-0.0492,-0.0494,-0.0486,-0.0489,-0.0478,-0.0422,-0.0404,-0.0332,-0.0306,-0.0205,-0.0152,-0.0051,0.0069,0.0062,0.0214,0.0225,0.0277,0.0276,0.0282,0.0278,0.0315,0.0315,0.0315,0.0314,0.0314,0,-0.0474,-0.0501,-0.0521,-0.0539,-0.0572,-0.054,-0.0551,-0.0518,-0.0462,-0.0434,-0.0343,-0.0287,-0.0142,-0.0035,0.0067,0.0197,0.0217,0.0277,0.0302,0.0259,0.0252,0.0287,0.0283,0.0318,0.0317,0.0316,0.0316,0,-0.0511,-0.0524,-0.0568,-0.0585,-0.0597,-0.0619,-0.0617,-0.0612,-0.0552,-0.051,-0.0488,-0.0342,-0.0196,-0.0054,0.0124,0.019,0.0318,0.0357,0.0293,0.0313,0.0344,0.0337,0.0424,0.0424,0.0424,0.0424,0.0425,0,-0.0531,-0.0559,-0.0617,-0.0656,-0.0672,-0.0701,-0.0716,-0.067,-0.0653,-0.0534,-0.051,-0.0358,-0.0252,-0.0005,0.0138,0.0327,0.0348,0.0398,0.0375,0.0341,0.0358,0.0349,0.0342,0.0425,0.0425,0.0425,0.0425,0,-0.0567,-0.0594,-0.0633,-0.0717,-0.076,-0.0802,-0.0812,-0.0804,-0.0726,-0.0668,-0.0509,-0.0357,-0.0188,0.0006,0.0148,0.0284,0.0357,0.0401,0.0401,0.0381,0.0344,0.0358,0.035,0.0426,0.0426,0.0426,0.0426,0,-0.0594,-0.0638,-0.0699,-0.0765,-0.0834,-0.0881,-0.0881,-0.0829,-0.079,-0.0637,-0.0578,-0.0367,-0.0226,-0.0015,0.0123,0.0248,0.0275,0.0296,0.0302,0.0302,0.0235,0.0169,0.0224,0,0,0,0,0,-0.0614,-0.0667,-0.074,-0.082,-0.089,-0.0922,-0.0932,-0.0909,-0.0825,-0.0718,-0.064,-0.0467,-0.0211,-0.0082,0.004,0.009,0.0258,0.0232,0.0274,0.0432,0.0431,0.0371,0,0,0,0,0,0,-0.0632,-0.0705,-0.0743,-0.0847,-0.0906,-0.0974,-0.0982,-0.093,-0.0851,-0.0736,-0.059,-0.0458,-0.0212,-0.0279,0.004,0.0082,0.0119,0.0373,0.0374,0.0433,0.0432,0.0431,0.0369,0,0,0,0,0]}]]